Juneau, WI

8:23 PM CDT on April 23, 2018 (GMT -0500)
Dodge County

Weather History for KUNU - March, 2014

Change the Weather History Date:

Tuesday, March 11, 2014

  Actual Average Record
Temperature  
Mean Temperature 37 °F -  
Max Temperature 41 °F 34 °F 62 °F (1973)
Min Temperature 33 °F 20 °F 0 °F (1979)
Degree Days  
Heating Degree Days 28    
Moisture  
Dew Point 31 °F    
Average Humidity 76    
Maximum Humidity 91    
Minimum Humidity 61    
Precipitation  
Precipitation 0.00 in - - ()
Sea Level Pressure  
Sea Level Pressure 29.74 in    
Wind  
Wind Speed 4 mph (NNW)    
Max Wind Speed 14 mph    
Max Gust Speed 20 mph    
Visibility 10 miles    
Events Rain    
Averages and records for this station are not official NWS values.
T = Trace of Precipitation, MM = Missing Value Source: NWS Daily Summary

Daily Weather History Graph

Daily Weather History Graph

Search for Another Location

Airport or City:

Astronomy

Mar. 11, 2014 Rise Set
Actual Time 7:13 AM CDT 6:56 PM CDT
Civil Twilight 6:45 AM CDT 7:24 PM CDT
Nautical Twilight 6:12 AM CDT 7:57 PM CDT
Astronomical Twilight 5:38 AM CDT 8:31 PM CDT
Moon 2:26 PM CDT (3/11) 4:13 AM CDT (3/11)
Length of Visible Light 12h 39m
Length of Day
11h 42m
Waxing Gibbous, 78% of the Moon is Illuminated
Mar 11
Waxing Gibbous
Mar 16
Full
Mar 23
Last Quarter
Mar 30
New
Apr 7
First Quarter

Hourly Weather History & Observations

Time (CDT) Temp. Windchill Dew Point Humidity Pressure Visibility Wind Dir Wind Speed Gust Speed Precip Events Conditions
12:15 AM 37.8 °F 35.3 °F 30.9 °F 76% 29.67 in 10.0 mi SW 3.5 mph - N/A   Clear
12:35 AM 40.1 °F 38.0 °F 30.6 °F 69% 29.66 in 10.0 mi West 3.5 mph - N/A   Clear
12:55 AM 41.4 °F 39.4 °F 29.8 °F 64% 29.66 in 10.0 mi WNW 3.5 mph - N/A   Clear
1:15 AM 39.0 °F 33.4 °F 30.0 °F 70% 29.66 in 10.0 mi SSW 8.1 mph - N/A   Clear
1:35 AM 37.2 °F 33.6 °F 30.6 °F 77% 29.66 in 10.0 mi SW 4.6 mph - N/A   Scattered Clouds
1:55 AM 37.9 °F 35.5 °F 30.6 °F 75% 29.67 in 10.0 mi SW 3.5 mph - N/A   Mostly Cloudy
2:15 AM 41.2 °F 39.2 °F 29.7 °F 64% 29.67 in 10.0 mi WSW 3.5 mph - N/A   Overcast
2:35 AM 40.6 °F 38.6 °F 29.7 °F 65% 29.67 in 10.0 mi SW 3.5 mph - N/A   Mostly Cloudy
2:55 AM 38.3 °F 35.9 °F 30.6 °F 74% 29.68 in 10.0 mi West 3.5 mph - N/A   Overcast
3:15 AM 38.1 °F 33.7 °F 30.2 °F 73% 29.68 in 10.0 mi SSW 5.8 mph - N/A   Overcast
3:35 AM 38.1 °F 35.7 °F 30.2 °F 73% 29.68 in 10.0 mi SSW 3.5 mph - N/A   Overcast
3:55 AM 38.1 °F 35.7 °F 30.6 °F 74% 29.67 in 10.0 mi SW 3.5 mph - N/A   Overcast
4:15 AM 38.3 °F - 30.2 °F 73% 29.67 in 10.0 mi Calm Calm - N/A   Overcast
4:35 AM 37.2 °F 34.7 °F 30.7 °F 77% 29.67 in 10.0 mi SSW 3.5 mph - N/A   Overcast
4:55 AM 38.1 °F - 30.6 °F 74% 29.67 in 10.0 mi Calm Calm - N/A   Mostly Cloudy
5:15 AM 37.6 °F - 30.6 °F 76% 29.67 in 10.0 mi Calm Calm - N/A   Mostly Cloudy
5:35 AM 38.7 °F - 30.2 °F 72% 29.67 in 10.0 mi Calm Calm - N/A   Mostly Cloudy
5:55 AM 37.0 °F - 29.8 °F 75% 29.68 in 10.0 mi Calm Calm - N/A   Scattered Clouds
6:15 AM 36.0 °F 30.3 °F 31.1 °F 82% 29.68 in 10.0 mi SSW 6.9 mph - N/A   Scattered Clouds
6:35 AM 37.0 °F 34.5 °F 31.6 °F 81% 29.69 in 10.0 mi WSW 3.5 mph - N/A   Mostly Cloudy
6:55 AM 38.3 °F 35.9 °F 30.2 °F 73% 29.69 in 10.0 mi WNW 3.5 mph - N/A   Overcast
7:15 AM 38.1 °F - 30.2 °F 73% 29.69 in 10.0 mi Calm Calm - N/A   Overcast
7:35 AM 39.2 °F 35.9 °F 29.5 °F 68% 29.70 in 10.0 mi NW 4.6 mph - N/A   Overcast
7:55 AM 40.1 °F 38.0 °F 28.4 °F 63% 29.70 in 10.0 mi NW 3.5 mph - N/A   Light Drizzle
8:15 AM 40.6 °F 37.5 °F 28.2 °F 61% 29.69 in 10.0 mi NNW 4.6 mph - N/A Rain Light Rain
8:35 AM 40.6 °F 38.6 °F 28.2 °F 61% 29.70 in 10.0 mi NW 3.5 mph - N/A   Light Drizzle
8:55 AM 39.6 °F 36.3 °F 28.9 °F 66% 29.71 in 10.0 mi NNW 4.6 mph - N/A   Light Drizzle
9:15 AM 39.9 °F - 28.9 °F 65% 29.71 in 10.0 mi Calm Calm - N/A Rain Light Rain
9:35 AM 41.0 °F 38.0 °F 28.9 °F 62% 29.72 in 10.0 mi NNW 4.6 mph - N/A   Drizzle
9:55 AM 39.9 °F 35.8 °F 29.7 °F 67% 29.74 in 10.0 mi NNW 5.8 mph - N/A Rain Rain
10:15 AM 39.6 °F 35.4 °F 30.6 °F 70% 29.75 in 10.0 mi NNW 5.8 mph - N/A   Drizzle
10:35 AM 39.6 °F 35.4 °F 30.9 °F 71% 29.74 in 10.0 mi North 5.8 mph - N/A   Drizzle
10:55 AM 38.8 °F 33.2 °F 31.5 °F 75% 29.75 in 10.0 mi North 8.1 mph - N/A   Drizzle
11:15 AM 39.2 °F 33.6 °F 33.3 °F 79% 29.75 in 10.0 mi North 8.1 mph - N/A   Drizzle
11:35 AM 38.5 °F 34.1 °F 34.0 °F 84% 29.75 in 10.0 mi North 5.8 mph - N/A   Drizzle
11:55 AM 38.3 °F 33.9 °F 34.7 °F 87% 29.76 in 10.0 mi North 5.8 mph - N/A Rain Rain
12:15 PM 38.3 °F 34.8 °F 35.6 °F 90% 29.77 in 7.0 mi NW 4.6 mph - N/A Rain Light Rain
12:35 PM 38.3 °F 31.4 °F 36.0 °F 91% 29.75 in 10.0 mi North 10.4 mph - N/A   Drizzle
12:55 PM 38.3 °F 32.5 °F 35.6 °F 90% 29.75 in 10.0 mi North 8.1 mph - N/A   Light Drizzle
1:15 PM 38.8 °F 34.6 °F 36.3 °F 91% 29.75 in 10.0 mi NW 5.8 mph - N/A   Mostly Cloudy
1:35 PM 39.2 °F 37.0 °F 36.0 °F 88% 29.75 in 10.0 mi WNW 3.5 mph - N/A   Overcast
1:55 PM 39.2 °F 37.0 °F 35.4 °F 86% 29.76 in 10.0 mi NW 3.5 mph - N/A   Overcast
2:15 PM 39.2 °F - 34.7 °F 84% 29.76 in 10.0 mi Calm Calm - N/A   Overcast
2:35 PM 38.8 °F 36.5 °F 34.2 °F 83% 29.76 in 10.0 mi NW 3.5 mph - N/A   Overcast
2:55 PM 38.8 °F 36.5 °F 33.8 °F 82% 29.75 in 10.0 mi NW 3.5 mph - N/A   Overcast
3:15 PM 38.7 °F 33.6 °F 33.3 °F 81% 29.75 in 10.0 mi NNW 6.9 mph - N/A   Overcast
3:35 PM 38.7 °F 36.3 °F 33.8 °F 83% 29.75 in 10.0 mi NW 3.5 mph - N/A   Overcast
3:55 PM 38.8 °F 35.4 °F 34.0 °F 83% 29.77 in 10.0 mi West 4.6 mph - N/A   Drizzle
4:15 PM 39.2 °F 37.0 °F 33.8 °F 81% 29.77 in 10.0 mi North 3.5 mph - N/A   Drizzle
4:35 PM 39.2 °F 35.9 °F 32.5 °F 77% 29.78 in 10.0 mi NNW 4.6 mph - N/A   Drizzle
4:55 PM 39.4 °F - 32.2 °F 75% 29.77 in 10.0 mi Calm Calm - N/A   Drizzle
5:15 PM 39.6 °F - 32.0 °F 74% 29.76 in 10.0 mi Calm Calm - N/A   Overcast
5:35 PM 39.7 °F 36.5 °F 32.0 °F 74% 29.77 in 10.0 mi SE 4.6 mph - N/A   Overcast
5:55 PM 38.3 °F 35.9 °F 33.1 °F 81% 29.76 in 10.0 mi SE 3.5 mph - N/A   Overcast
6:15 PM 37.4 °F - 32.4 °F 82% 29.77 in 10.0 mi Calm Calm - N/A   Overcast
6:35 PM 37.9 °F - 32.0 °F 79% 29.78 in 10.0 mi Calm Calm - N/A   Overcast
6:55 PM 37.6 °F 35.1 °F 32.0 °F 80% 29.78 in 10.0 mi East 3.5 mph - N/A   Overcast
7:15 PM 36.5 °F 31.0 °F 32.4 °F 85% 29.78 in 10.0 mi SE 6.9 mph - N/A   Light Drizzle
7:35 PM 36.9 °F - 32.0 °F 83% 29.78 in 10.0 mi Calm Calm - N/A   Overcast
7:55 PM 37.2 °F 31.9 °F 32.0 °F 81% 29.81 in 10.0 mi NE 6.9 mph - N/A   Overcast
8:15 PM 36.0 °F 31.1 °F 30.2 °F 80% 29.82 in 10.0 mi East 5.8 mph - N/A   Overcast
8:35 PM 35.4 °F 31.5 °F 30.2 °F 81% 29.83 in 10.0 mi ESE 4.6 mph - N/A   Overcast
8:55 PM 34.7 °F 30.6 °F 30.0 °F 83% 29.82 in 10.0 mi East 4.6 mph - N/A   Overcast
9:15 PM 35.1 °F 30.1 °F 28.4 °F 77% 29.82 in 10.0 mi East 5.8 mph - N/A   Mostly Cloudy
9:35 PM 34.7 °F 30.6 °F 28.4 °F 78% 29.83 in 10.0 mi ENE 4.6 mph - N/A   Clear
9:55 PM 34.7 °F 28.1 °F 28.0 °F 77% 29.83 in 10.0 mi NE 8.1 mph - N/A   Mostly Cloudy
10:15 PM 34.2 °F 26.8 °F 27.3 °F 76% 29.82 in 10.0 mi ENE 9.2 mph - N/A   Overcast
10:35 PM 34.0 °F 27.2 °F 26.6 °F 74% 29.82 in 10.0 mi NE 8.1 mph - N/A   Mostly Cloudy
10:55 PM 33.8 °F 25.3 °F 26.1 °F 73% 29.82 in 10.0 mi NE 11.5 mph - N/A   Mostly Cloudy
11:15 PM 33.8 °F 24.8 °F 25.3 °F 71% 29.81 in 10.0 mi ENE 12.7 mph - N/A   Overcast
11:35 PM 33.4 °F 23.9 °F 24.3 °F 69% 29.80 in 10.0 mi NE 13.8 mph 19.6 mph N/A   Overcast
11:55 PM 33.1 °F 23.4 °F 23.9 °F 69% 29.81 in 10.0 mi NE 13.8 mph 18.4 mph N/A   Mostly Cloudy